STARLINK-32223, 60373

Orbit data source: Space-Track

STARLINK-32223, 60373 is a payload satellite owned by SpaceX/Seattle (US) in LEO that was launched on Sun, 04 Aug 2024 UTC via an FALCON 9 launch vehicle from the Air Force Western Test Range (AFWTR). Payload-class satellites include a variety of spacecraft equipped with specific instruments for various scientific and technological missions. These include communications satellites like Starlink; space stations such as the ISS; scientific satellites like the Hubble; Earth observation satellites from companies like Planet Labs, Umbra, and HawkEye 360; GPS; miniature CubeSats for education and research; and military/defense satellites.

Loading next visibility...
Identifier
60373, 2024-138U
Orbit
LEO
Country
Flag of USUS
Related business
Manufacturer
SpaceX/Seattle
Mission
Operational Commercial Communications
Bus & Motor
STARLINK V2M, Unknown motor
Mass
730 kg wet, ~700 kg dry
Launch date (UTC)
2024-08-04 (1 year ago)
Launch vehicle
FALCON 9
Launch site
Air Force Western Test Range (AFWTR)
Object type
Payload
Rocket body
Debris
Shape & HBR
Box + 2 Pan, 17.7 m
Radar Cross Section
33.884 m², Large (>1 m²)

Expand to show TLE details & history
Last TLE update: 19 hours ago

TLE from 19 hours ago
0 STARLINK-32223
1 60373U 24138U   25291.15408924  .00007899  00000-0  27858-3 0  9995
2 60373  53.1606 251.7442 0001141 100.9065 259.2064 15.30194165 68709
Epoch: 2025-10-18T03:41Z
TLE epoch observation values (Epoch: 2025-10-18T03:41:53.310Z)
Latitude
-0.00003°
Longitude
169.38287°
Altitude
476.279 km
Speed
7.629 km/s
True Right ascension
16h 46m 58s
True Declination
0° 00' 00"
Sunlit
Object was in daylight at epoch
Visualization orbit readout
Latitude
Unknown
Longitude
Unknown
Altitude
Unknown
Speed
Unknown
Apparent Right ascension
Unknown
Apparent Declination
Unknown
Sunlit
N/A
Visualization observer readout
Local Sidereal Time
17:09:27
Azimuth
Unknown
Elevation
Unknown
Doppler factor
Unknown
Orbital elements
Apogee altitude
476.271 km
Perigee altitude
474.707 km
Semi-major axis
6,853.626 km
Eccentricity
0.00011
Inclination
53.1606°
RAAN
251.7442°
Arg. of periapsis
100.9065°
True anomaly
259.19356°
Mean anomaly
259.2064°
Eccentric anomaly
259.19998°
Mean motion
3.82527 °/min
Orbital period
94.11 mins
BSTAR
0.00027858
Loading maneuver chart data...
Computing Atmospheric mass density...
Loading historical data...
Loading historical data...
Loading historical data...
Loading historical data...
Loading historical data...
Loading historical data...
Loading historical data...

Documentation

Showing up to 5 results
|